| time (UTC) | temp F | wind direction | speed knots | gust knots | rain 1hr in | rain 24hr in | rain mn in | humidity % | barometer mb |
| 20260507192813 | 57 | 262 | 1.7 | 2.6 | 0.00 | 0.20 | 0.02 | 73 | 1014.9 |
| 20260507192327 | 57 | 312 | 0.0 | 1.7 | 0.00 | 0.20 | 0.02 | 74 | 1014.7 |
| 20260507191827 | 57 | 315 | 0.0 | 1.7 | 0.00 | 0.20 | 0.02 | 74 | 1014.7 |
| 20260507191347 | 57 | 315 | 0.0 | 1.7 | 0.00 | 0.20 | 0.02 | 74 | 1014.7 |
| 20260507190826 | 57 | 309 | 0.0 | 1.7 | 0.00 | 0.20 | 0.02 | 74 | 1014.6 |
| 20260507190345 | 57 | 292 | 0.0 | 2.6 | 0.00 | 0.20 | 0.02 | 74 | 1014.5 |
| 20260507185821 | 58 | 286 | 0.0 | 1.7 | 0.00 | 0.20 | 0.02 | 73 | 1014.6 |
| 20260507185338 | 58 | 286 | 0.0 | 2.6 | 0.00 | 0.20 | 0.02 | 74 | 1014.5 |
| 20260507184817 | 58 | 286 | 0.9 | 3.5 | 0.00 | 0.20 | 0.02 | 74 | 1014.5 |
| 20260507184314 | 58 | 257 | 2.6 | 3.5 | 0.00 | 0.20 | 0.02 | 72 | 1014.4 |
| 20260507183815 | 58 | 287 | 1.7 | 4.3 | 0.00 | 0.20 | 0.02 | 73 | 1014.3 |
| 20260507183333 | 58 | 336 | 1.7 | 5.2 | 0.00 | 0.20 | 0.02 | 73 | 1014.2 |
| 20260507182831 | 58 | 334 | 3.5 | 5.2 | 0.00 | 0.20 | 0.02 | 74 | 1014.3 |
| 20260507182350 | 58 | 55 | 1.7 | 2.6 | 0.00 | 0.20 | 0.02 | 72 | 1014.1 |
| 20260507181830 | 59 | 53 | 0.9 | 2.6 | 0.00 | 0.20 | 0.02 | 73 | 1014.2 |
| 20260507181329 | 59 | 302 | 1.7 | 2.6 | 0.00 | 2.44 | 0.02 | 69 | 1014.1 |
| 20260507180829 | 59 | 306 | 1.7 | 3.5 | 0.00 | 2.44 | 0.02 | 70 | 1014.0 |
| 20260507180348 | 59 | 300 | 1.7 | 5.2 | 0.00 | 2.44 | 0.02 | 71 | 1014.0 |
| 20260507175826 | 59 | 278 | 3.5 | 5.2 | 0.00 | 2.44 | 0.02 | 71 | 1013.9 |
| 20260507175325 | 59 | 284 | 2.6 | 5.2 | 0.00 | 2.44 | 0.02 | 70 | 1013.9 |
| 20260507174824 | 59 | 258 | 3.5 | 5.2 | 0.00 | 2.44 | 0.02 | 71 | 1013.8 |
| 20260507174324 | 59 | 273 | 2.6 | 3.5 | 0.00 | 2.44 | 0.02 | 69 | 1013.8 |
| 20260507173822 | 59 | 267 | 1.7 | 3.5 | 0.00 | 2.44 | 0.02 | 69 | 1013.7 |
| 20260507173321 | 59 | 279 | 2.6 | 4.3 | 0.00 | 2.44 | 0.02 | 70 | 1013.8 |
| 20260507172841 | 59 | 286 | 2.6 | 5.2 | 0.00 | 2.44 | 0.02 | 70 | 1013.8 |
| 20260507172319 | 59 | 286 | 0.9 | 2.6 | 0.00 | 2.44 | 0.02 | 69 | 1013.7 |
| 20260507171839 | 59 | 284 | 1.7 | 2.6 | 0.00 | 2.44 | 0.02 | 74 | 1013.7 |
| 20260507171319 | 60 | 242 | 0.9 | 3.5 | 0.00 | 2.48 | 0.02 | 73 | 1013.7 |
| 20260507170817 | 60 | 194 | 1.7 | 3.5 | 0.00 | 2.48 | 0.02 | 71 | 1013.5 |
| 20260507170317 | 60 | 333 | 0.9 | 2.6 | 0.00 | 2.48 | 0.02 | 69 | 1013.4 |
| 20260507165816 | 60 | 18 | 1.7 | 2.6 | 0.00 | 2.48 | 0.02 | 69 | 1013.6 |
| 20260507165316 | 60 | 269 | 0.0 | 1.7 | 0.00 | 2.48 | 0.02 | 71 | 1013.4 |
| 20260507164815 | 60 | 294 | 0.9 | 2.6 | 0.00 | 2.48 | 0.02 | 70 | 1013.5 |
| 20260507164313 | 60 | 306 | 0.9 | 3.5 | 0.00 | 2.48 | 0.02 | 71 | 1013.4 |
| 20260507163834 | 60 | 248 | 1.7 | 3.5 | 0.00 | 2.48 | 0.02 | 71 | 1013.4 |
| 20260507163348 | 60 | 250 | 2.6 | 4.3 | 0.00 | 2.48 | 0.02 | 70 | 1013.5 |
| 20260507162828 | 60 | 237 | 2.6 | 4.3 | 0.00 | 2.48 | 0.02 | 70 | 1013.5 |
| 20260507162326 | 61 | 142 | 1.7 | 2.6 | 0.00 | 2.48 | 0.02 | 69 | 1013.5 |
| 20260507161825 | 61 | 331 | 0.9 | 2.6 | 0.00 | 2.48 | 0.02 | 67 | 1013.5 |
| 20260507161324 | 61 | 12 | 0.9 | 2.6 | 0.00 | 2.48 | 0.02 | 66 | 1013.5 |
| 20260507160823 | 61 | 355 | 1.7 | 2.6 | 0.00 | 2.48 | 0.02 | 63 | 1013.4 |
| 20260507160321 | 62 | 325 | 0.9 | 2.6 | 0.00 | 2.48 | 0.02 | 63 | 1013.5 |
| 20260507155821 | 62 | 340 | 0.9 | 2.6 | 0.00 | 2.48 | 0.02 | 65 | 1013.5 |
| 20260507155321 | 62 | 312 | 0.9 | 3.5 | 0.00 | 2.48 | 0.02 | 65 | 1013.5 |
| 20260507154818 | 63 | 142 | 1.7 | 3.5 | 0.00 | 2.48 | 0.02 | 62 | 1013.5 |
| 20260507154316 | 62 | 76 | 0.9 | 2.6 | 0.00 | 2.48 | 0.02 | 63 | 1013.4 |
| 20260507153815 | 62 | 79 | 0.9 | 3.5 | 0.00 | 2.48 | 0.02 | 63 | 1013.4 |
| 20260507153315 | 62 | 96 | 1.7 | 3.5 | 0.00 | 2.48 | 0.02 | 66 | 1013.3 |
| 20260507152814 | 61 | 87 | 0.9 | 2.6 | 0.00 | 2.48 | 0.02 | 68 | 1013.4 |
| 20260507152333 | 61 | 141 | 1.7 | 2.6 | 0.00 | 2.48 | 0.02 | 70 | 1013.3 |
| 20260507151831 | 61 | 229 | 0.9 | 2.6 | 0.00 | 2.48 | 0.02 | 67 | 1013.3 |
| 20260507151331 | 61 | 249 | 0.9 | 1.7 | 0.00 | 2.48 | 0.02 | 66 | 1013.4 |
| 20260507150851 | 61 | 265 | 0.9 | 2.6 | 0.00 | 2.48 | 0.02 | 70 | 1013.4 |
| 20260507150329 | 60 | 237 | 0.9 | 4.3 | 0.00 | 2.48 | 0.02 | 73 | 1013.4 |
| 20260507145828 | 60 | 213 | 2.6 | 4.3 | 0.00 | 2.48 | 0.02 | 70 | 1013.4 |
| 20260507145329 | 60 | 244 | 1.7 | 3.5 | 0.00 | 2.48 | 0.02 | 70 | 1013.5 |
| 20260507144829 | 60 | 255 | 1.7 | 2.6 | 0.00 | 2.48 | 0.02 | 69 | 1013.4 |
| 20260507144330 | 60 | 338 | 0.9 | 2.6 | 0.00 | 2.48 | 0.02 | 69 | 1013.4 |
| 20260507143829 | 60 | 314 | 0.9 | 2.6 | 0.00 | 2.48 | 0.02 | 70 | 1013.4 |
| 20260507143328 | 59 | 252 | 1.7 | 3.5 | 0.00 | 2.48 | 0.02 | 68 | 1013.5 |
| 20260507142827 | 60 | 249 | 2.6 | 3.5 | 0.00 | 2.48 | 0.02 | 70 | 1013.5 |
| 20260507142347 | 60 | 240 | 1.7 | 3.5 | 0.00 | 2.48 | 0.02 | 69 | 1013.5 |
| 20260507141845 | 60 | 210 | 0.9 | 1.7 | 0.00 | 2.48 | 0.02 | 71 | 1013.5 |
| 20260507141324 | 60 | 132 | 0.9 | 1.7 | 0.00 | 2.48 | 0.02 | 69 | 1013.5 |
| 20260507140823 | 60 | 132 | 0.9 | 3.5 | 0.00 | 2.48 | 0.02 | 68 | 1013.5 |
| 20260507140342 | 60 | 95 | 0.9 | 3.5 | 0.00 | 2.48 | 0.02 | 69 | 1013.6 |
| 20260507135820 | 60 | 62 | 2.6 | 3.5 | 0.00 | 2.48 | 0.02 | 67 | 1013.6 |
| 20260507135319 | 60 | 80 | 0.9 | 5.2 | 0.00 | 2.48 | 0.02 | 66 | 1013.7 |
| 20260507134819 | 60 | 61 | 2.6 | 6.1 | 0.00 | 2.48 | 0.02 | 66 | 1013.6 |
| 20260507134319 | 60 | 30 | 1.7 | 4.3 | 0.00 | 2.48 | 0.02 | 66 | 1013.7 |
| 20260507133818 | 60 | 19 | 1.7 | 5.2 | 0.00 | 2.48 | 0.02 | 67 | 1013.7 |
| 20260507133320 | 60 | 23 | 4.3 | 6.1 | 0.00 | 2.48 | 0.02 | 67 | 1013.7 |
| 20260507132818 | 61 | 92 | 2.6 | 5.2 | 0.00 | 2.48 | 0.02 | 68 | 1013.7 |
| 20260507132316 | 61 | 56 | 2.6 | 7.8 | 0.00 | 2.48 | 0.02 | 67 | 1013.9 |
| 20260507131815 | 61 | 34 | 4.3 | 8.7 | 0.00 | 2.48 | 0.02 | 68 | 1013.9 |
| 20260507131314 | 61 | 47 | 5.2 | 8.7 | 0.00 | 2.48 | 0.02 | 66 | 1013.8 |
| 20260507130834 | 61 | 69 | 5.2 | 8.7 | 0.00 | 2.48 | 0.02 | 69 | 1013.8 |
| 20260507130314 | 61 | 37 | 4.3 | 7.8 | 0.00 | 2.48 | 0.02 | 69 | 1013.7 |
| 20260507125832 | 61 | 82 | 3.5 | 7.0 | 0.00 | 2.48 | 0.02 | 68 | 1013.7 |
| 20260507125332 | 62 | 121 | 4.3 | 7.0 | 0.00 | 2.48 | 0.02 | 66 | 1013.5 |
| 20260507124830 | 62 | 63 | 4.3 | 7.0 | 0.00 | 2.48 | 0.02 | 70 | 1013.6 |
| 20260507124349 | 61 | 101 | 3.5 | 7.0 | 0.00 | 2.48 | 0.02 | 70 | 1013.5 |
| 20260507123827 | 61 | 83 | 3.5 | 7.0 | 0.00 | 2.48 | 0.02 | 70 | 1013.7 |
| 20260507123326 | 60 | 83 | 2.6 | 5.2 | 0.00 | 2.48 | 0.02 | 70 | 1013.8 |
| 20260507122846 | 60 | 115 | 3.5 | 6.1 | 0.00 | 2.48 | 0.02 | 70 | 1013.7 |
| 20260507122325 | 61 | 126 | 3.5 | 7.0 | 0.00 | 2.48 | 0.02 | 70 | 1013.7 |
| 20260507121824 | 61 | 109 | 4.3 | 7.0 | 0.00 | 2.48 | 0.02 | 70 | 1013.7 |
| 20260507121323 | 61 | 30 | 3.5 | 7.0 | 0.00 | 2.52 | 0.02 | 69 | 1013.7 |
| 20260507120823 | 61 | 83 | 3.5 | 7.0 | 0.00 | 2.52 | 0.02 | 69 | 1013.9 |
| 20260507120321 | 60 | 144 | 4.3 | 7.0 | 0.00 | 2.52 | 0.02 | 70 | 1013.9 |
| 20260507115817 | 61 | 98 | 4.3 | 7.0 | 0.00 | 2.52 | 0.02 | 72 | 1014.0 |
| 20260507115315 | 60 | 93 | 2.6 | 8.7 | 0.00 | 2.52 | 0.02 | 71 | 1013.9 |
| 20260507114814 | 60 | 82 | 5.2 | 8.7 | 0.00 | 2.52 | 0.02 | 71 | 1013.9 |
| 20260507114329 | 60 | 110 | 2.6 | 7.8 | 0.00 | 2.52 | 0.02 | 72 | 1013.8 |
| 20260507113828 | 59 | 103 | 3.5 | 7.8 | 0.00 | 2.52 | 0.02 | 72 | 1013.9 |
| 20260507113326 | 60 | 57 | 4.3 | 7.8 | 0.00 | 2.52 | 0.02 | 72 | 1013.9 |
| 20260507112826 | 59 | 117 | 3.5 | 8.7 | 0.00 | 2.52 | 0.02 | 73 | 1013.9 |
| 20260507112326 | 60 | 107 | 6.1 | 10.4 | 0.00 | 2.52 | 0.02 | 72 | 1013.9 |
| 20260507111824 | 60 | 97 | 6.1 | 11.3 | 0.00 | 2.52 | 0.02 | 71 | 1013.9 |
| 20260507111325 | 59 | 131 | 7.8 | 11.3 | 0.00 | 5.04 | 0.02 | 72 | 1013.9 |
| 20260507110823 | 59 | 122 | 6.1 | 10.4 | 0.00 | 5.04 | 0.02 | 72 | 1014.1 |
| 20260507110325 | 59 | 105 | 6.1 | 9.6 | 0.00 | 5.04 | 0.02 | 73 | 1014.1 |
| 20260507105824 | 59 | 86 | 2.6 | 7.0 | 0.00 | 5.04 | 0.02 | 76 | 1014.2 |
| 20260507105322 | 58 | 69 | 1.7 | 5.2 | 0.00 | 5.04 | 0.02 | 73 | 1014.3 |
| 20260507104823 | 57 | 103 | 2.6 | 5.2 | 0.00 | 5.04 | 0.02 | 75 | 1014.2 |
| 20260507104322 | 57 | 89 | 2.6 | 6.1 | 0.00 | 5.04 | 0.02 | 73 | 1014.2 |
| 20260507103821 | 57 | 91 | 2.6 | 7.0 | 0.00 | 5.04 | 0.02 | 74 | 1014.3 |
| 20260507103322 | 57 | 120 | 4.3 | 7.8 | 0.00 | 5.04 | 0.02 | 74 | 1014.3 |
| 20260507102821 | 57 | 51 | 1.7 | 7.8 | 0.00 | 5.04 | 0.02 | 74 | 1014.3 |
| 20260507102321 | 57 | 50 | 3.5 | 7.0 | 0.00 | 5.04 | 0.02 | 72 | 1014.3 |
| 20260507101821 | 58 | 153 | 3.5 | 7.8 | 0.00 | 5.04 | 0.02 | 72 | 1014.3 |
| 20260507101321 | 58 | 109 | 5.2 | 9.6 | 0.00 | 5.79 | 0.02 | 72 | 1014.3 |
| 20260507100820 | 59 | 149 | 6.1 | 9.6 | 0.00 | 5.79 | 0.02 | 71 | 1014.3 |
| 20260507100339 | 59 | 103 | 7.0 | 9.6 | 0.00 | 5.79 | 0.02 | 71 | 1014.3 |
| 20260507095838 | 59 | 102 | 2.6 | 5.2 | 0.00 | 5.79 | 0.02 | 72 | 1014.3 |
| 20260507095334 | 58 | 83 | 1.7 | 6.1 | 0.00 | 5.79 | 0.02 | 75 | 1014.2 |
| 20260507094836 | 58 | 109 | 3.5 | 6.1 | 0.00 | 5.79 | 0.02 | 71 | 1014.3 |
| 20260507094354 | 57 | 170 | 0.9 | 3.5 | 0.00 | 5.79 | 0.02 | 72 | 1014.3 |
| 20260507093833 | 56 | 146 | 1.7 | 2.6 | 0.00 | 5.79 | 0.02 | 73 | 1014.3 |
| 20260507093331 | 56 | 119 | 1.7 | 2.6 | 0.00 | 5.79 | 0.02 | 71 | 1014.3 |
| 20260507092830 | 56 | 132 | 1.7 | 3.5 | 0.00 | 5.79 | 0.02 | 73 | 1014.5 |
| 20260507092330 | 56 | 103 | 1.7 | 5.2 | 0.00 | 5.79 | 0.02 | 72 | 1014.4 |
| 20260507091829 | 56 | 91 | 3.5 | 5.2 | 0.00 | 5.79 | 0.02 | 70 | 1014.4 |
| 20260507091326 | 57 | 90 | 3.5 | 7.0 | 0.00 | 5.87 | 0.02 | 72 | 1014.3 |
| 20260507090844 | 57 | 109 | 4.3 | 7.0 | 0.00 | 5.87 | 0.02 | 71 | 1014.4 |
| 20260507090322 | 58 | 112 | 4.3 | 6.1 | 0.00 | 5.87 | 0.02 | 72 | 1014.3 |
| 20260507085819 | 57 | 114 | 1.7 | 5.2 | 0.00 | 5.87 | 0.02 | 72 | 1014.3 |
| 20260507085510 | 56 | 130 | 2.6 | 5.2 | 0.00 | 5.87 | 0.02 | 77 | 1014.3 |
| 20260507084830 | 55 | 134 | 1.7 | 5.2 | 0.00 | 5.87 | 0.02 | 79 | 1014.3 |
| 20260507084350 | 55 | 107 | 1.7 | 5.2 | 0.00 | 5.87 | 0.02 | 81 | 1014.2 |
| 20260507083828 | 55 | 135 | 2.6 | 3.5 | 0.00 | 5.87 | 0.02 | 80 | 1014.3 |
| 20260507083328 | 55 | 117 | 0.9 | 3.5 | 0.00 | 5.87 | 0.02 | 79 | 1014.3 |
| 20260507082848 | 55 | 112 | 1.7 | 5.2 | 0.00 | 5.87 | 0.02 | 84 | 1014.3 |
| 20260507082346 | 55 | 109 | 2.6 | 7.0 | 0.00 | 5.87 | 0.02 | 82 | 1014.2 |
| 20260507081823 | 55 | 118 | 4.3 | 7.0 | 0.00 | 5.87 | 0.02 | 83 | 1014.2 |
| 20260507081320 | 55 | 105 | 3.5 | 6.1 | 0.00 | 6.10 | 0.02 | 83 | 1014.1 |
| 20260507080817 | 55 | 138 | 1.7 | 3.5 | 0.00 | 6.10 | 0.02 | 84 | 1014.1 |
| 20260507080331 | 54 | 91 | 2.6 | 3.5 | 0.00 | 6.10 | 0.02 | 85 | 1014.0 |
| 20260507075828 | 53 | 117 | 0.9 | 2.6 | 0.00 | 6.10 | 0.02 | 85 | 1014.1 |
| 20260507075328 | 53 | 161 | 1.7 | 1.7 | 0.00 | 6.10 | 0.02 | 85 | 1014.0 |
| 20260507074828 | 53 | 141 | 0.9 | 2.6 | 0.00 | 6.10 | 0.02 | 86 | 1014.0 |
| 20260507074346 | 53 | 140 | 1.7 | 3.5 | 0.00 | 6.10 | 0.02 | 83 | 1014.0 |
| 20260507073822 | 53 | 110 | 2.6 | 3.5 | 0.00 | 6.10 | 0.02 | 85 | 1014.0 |
| 20260507073342 | 53 | 91 | 0.9 | 3.5 | 0.00 | 6.10 | 0.02 | 86 | 1014.0 |
| 20260507072840 | 53 | 136 | 0.9 | 5.2 | 0.00 | 6.10 | 0.02 | 85 | 1013.9 |
| 20260507072342 | 54 | 102 | 3.5 | 5.2 | 0.00 | 6.10 | 0.02 | 84 | 1014.1 |
| 20260507071820 | 53 | 113 | 0.9 | 1.7 | 0.00 | 6.10 | 0.02 | 85 | 1014.0 |
| 20260507071318 | 53 | 128 | 0.9 | 4.3 | 0.00 | 6.14 | 0.02 | 86 | 1014.0 |
| 20260507070818 | 53 | 156 | 1.7 | 4.3 | 0.00 | 6.14 | 0.02 | 88 | 1013.9 |
| 20260507070317 | 52 | 194 | 1.7 | 2.6 | 0.00 | 6.14 | 0.02 | 88 | 1013.8 |
| 20260507065818 | 52 | 134 | 0.0 | 2.6 | 0.00 | 6.14 | 0.02 | 87 | 1013.8 |
| 20260507065316 | 52 | 105 | 1.7 | 2.6 | 0.00 | 6.14 | 0.02 | 86 | 1013.9 |
| 20260507064816 | 53 | 112 | 1.7 | 2.6 | 0.00 | 6.14 | 0.02 | 86 | 1013.9 |
| 20260507064336 | 53 | 137 | 1.7 | 3.5 | 0.00 | 6.14 | 0.02 | 85 | 1013.7 |
| 20260507063814 | 53 | 109 | 2.6 | 4.3 | 0.00 | 6.14 | 0.02 | 82 | 1013.6 |
| 20260507063333 | 53 | 110 | 1.7 | 4.3 | 0.00 | 6.14 | 0.02 | 79 | 1013.7 |
| 20260507062833 | 53 | 169 | 0.9 | 5.2 | 0.00 | 6.14 | 0.02 | 79 | 1013.6 |
| 20260507062331 | 52 | 244 | 2.6 | 7.0 | 0.00 | 6.14 | 0.02 | 81 | 1013.6 |
| 20260507061830 | 51 | 252 | 4.3 | 7.8 | 0.00 | 6.14 | 0.02 | 81 | 1013.7 |
| 20260507061328 | 51 | 246 | 4.3 | 7.8 | 0.00 | 6.46 | 0.02 | 85 | 1013.6 |
| 20260507060828 | 50 | 254 | 3.5 | 7.0 | 0.00 | 6.46 | 0.02 | 87 | 1013.7 |
| 20260507060326 | 50 | 236 | 2.6 | 7.0 | 0.00 | 6.46 | 0.02 | 88 | 1013.7 |
| 20260507055823 | 50 | 243 | 5.2 | 7.0 | 0.00 | 6.46 | 0.02 | 84 | 1013.7 |
| 20260507055321 | 50 | 242 | 3.5 | 4.3 | 0.00 | 6.46 | 0.02 | 86 | 1013.7 |
| 20260507054841 | 51 | 229 | 1.7 | 4.3 | 0.00 | 6.46 | 0.02 | 86 | 1013.7 |
| 20260507054319 | 51 | 208 | 2.6 | 3.5 | 0.00 | 6.46 | 0.02 | 87 | 1013.5 |
| 20260507053820 | 50 | 13 | 0.0 | 2.6 | 0.00 | 6.46 | 0.02 | 83 | 1013.6 |
| 20260507053317 | 50 | 355 | 1.7 | 3.5 | 0.00 | 6.46 | 0.02 | 84 | 1013.5 |
| 20260507052837 | 50 | 244 | 2.6 | 3.5 | 0.00 | 6.46 | 0.02 | 85 | 1013.5 |
| 20260507052334 | 50 | 202 | 1.7 | 3.5 | 0.00 | 6.46 | 0.02 | 87 | 1013.5 |
| 20260507051833 | 50 | 262 | 2.6 | 3.5 | 0.00 | 6.46 | 0.02 | 88 | 1013.4 |
| 20260507051332 | 50 | 261 | 2.6 | 3.5 | 0.00 | 7.24 | 0.02 | 88 | 1013.3 |
| 20260507050831 | 50 | 310 | 1.7 | 3.5 | 0.00 | 7.24 | 0.02 | 87 | 1013.4 |
| 20260507050330 | 50 | 304 | 1.7 | 6.1 | 0.00 | 7.24 | 0.02 | 86 | 1013.3 |
| 20260507045829 | 50 | 240 | 3.5 | 6.1 | 0.00 | 7.24 | 0.02 | 86 | 1013.3 |
| 20260507045329 | 50 | 224 | 2.6 | 4.3 | 0.00 | 7.24 | 0.02 | 85 | 1013.2 |
| 20260507044828 | 50 | 234 | 2.6 | 6.1 | 0.00 | 7.24 | 0.02 | 87 | 1013.3 |
| 20260507044327 | 49 | 278 | 2.6 | 6.1 | 0.00 | 7.24 | 0.02 | 88 | 1013.1 |
| 20260507043827 | 49 | 282 | 1.7 | 3.5 | 0.00 | 7.24 | 0.02 | 88 | 1013.1 |
| 20260507043326 | 49 | 223 | 1.7 | 2.6 | 0.00 | 7.24 | 0.02 | 88 | 1013.0 |
| 20260507042826 | 49 | 270 | 0.9 | 1.7 | 0.00 | 7.24 | 0.02 | 88 | 1012.9 |
| 20260507042325 | 50 | 275 | 0.0 | 2.6 | 0.00 | 7.24 | 0.02 | 88 | 1012.9 |
| 20260507041825 | 50 | 275 | 0.0 | 3.5 | 0.00 | 7.24 | 0.02 | 87 | 1012.9 |
| 20260507041326 | 50 | 282 | 2.6 | 6.1 | 0.00 | 7.32 | 0.02 | 87 | 1012.8 |
| 20260507040826 | 49 | 271 | 4.3 | 6.1 | 0.00 | 7.32 | 0.02 | 87 | 1012.7 |
| 20260507040325 | 49 | 272 | 2.6 | 5.2 | 0.00 | 7.32 | 0.02 | 88 | 1012.8 |
| 20260507035822 | 49 | 288 | 2.6 | 4.3 | 0.00 | 7.32 | 0.02 | 88 | 1012.8 |
| 20260507035323 | 49 | 280 | 3.5 | 4.3 | 0.00 | 7.32 | 0.02 | 88 | 1012.7 |
| 20260507034822 | 49 | 270 | 2.6 | 3.5 | 0.00 | 7.32 | 0.02 | 88 | 1012.8 |
| 20260507034318 | 49 | 285 | 2.6 | 3.5 | 0.00 | 7.32 | 0.02 | 88 | 1012.8 |
| 20260507033816 | 49 | 269 | 1.7 | 3.5 | 0.00 | 7.32 | 0.02 | 88 | 1012.8 |
| 20260507033316 | 49 | 284 | 2.6 | 3.5 | 0.00 | 7.32 | 0.02 | 87 | 1012.8 |
| 20260507032837 | 49 | 311 | 0.9 | 3.5 | 0.00 | 7.32 | 0.02 | 87 | 1012.7 |
| 20260507032336 | 49 | 270 | 1.7 | 3.5 | 0.00 | 7.32 | 0.02 | 88 | 1012.9 |
| 20260507031831 | 49 | 196 | 2.6 | 3.5 | 0.00 | 7.32 | 0.02 | 87 | 1012.9 |
| 20260507031330 | 49 | 355 | 0.9 | 4.3 | 0.00 | 7.32 | 0.02 | 87 | 1012.9 |
| 20260507030851 | 49 | 355 | 2.6 | 4.3 | 0.00 | 7.32 | 0.02 | 87 | 1012.7 |
| 20260507030350 | 49 | 311 | 2.6 | 6.1 | 0.00 | 7.32 | 0.02 | 87 | 1012.8 |
| 20260507025829 | 49 | 298 | 1.7 | 4.3 | 0.00 | 7.32 | 0.02 | 88 | 1012.7 |
| 20260507025326 | 49 | 311 | 2.6 | 4.3 | 0.00 | 7.32 | 0.02 | 88 | 1012.7 |
| 20260507024825 | 49 | 265 | 2.6 | 4.3 | 0.00 | 7.32 | 0.02 | 88 | 1012.6 |
| 20260507024323 | 49 | 261 | 2.6 | 4.3 | 0.04 | 7.32 | 0.02 | 88 | 1012.6 |
| 20260507023822 | 49 | 279 | 1.7 | 3.5 | 0.04 | 7.32 | 0.02 | 88 | 1012.7 |
| 20260507023321 | 49 | 250 | 1.7 | 3.5 | 0.04 | 7.32 | 0.02 | 88 | 1012.6 |
| 20260507022820 | 49 | 275 | 2.6 | 3.5 | 0.04 | 7.32 | 0.02 | 88 | 1012.6 |
| 20260507022318 | 49 | 252 | 2.6 | 3.5 | 0.04 | 7.32 | 0.02 | 89 | 1012.6 |
| 20260507021820 | 49 | 251 | 1.7 | 2.6 | 0.04 | 7.32 | 0.02 | 89 | 1012.6 |
| 20260507021320 | 49 | 282 | 1.7 | 2.6 | 0.04 | 7.32 | 0.02 | 88 | 1012.6 |
| 20260507020819 | 49 | 279 | 0.0 | 2.6 | 0.04 | 7.32 | 0.02 | 88 | 1012.7 |
| 20260507020316 | 49 | 326 | 0.0 | 4.3 | 0.04 | 7.32 | 0.02 | 88 | 1012.6 |
| 20260507015837 | 49 | 61 | 2.6 | 4.3 | 0.04 | 7.32 | 0.02 | 88 | 1012.5 |
| 20260507015315 | 49 | 302 | 1.7 | 3.5 | 0.04 | 7.32 | 0.02 | 88 | 1012.5 |
| 20260507014833 | 49 | 275 | 1.7 | 3.5 | 0.04 | 7.32 | 0.02 | 89 | 1012.4 |
| 20260507014332 | 49 | 277 | 0.0 | 2.6 | 0.00 | 7.28 | 0.01 | 88 | 1012.4 |
| 20260507013853 | 49 | 275 | 1.7 | 3.5 | 0.00 | 7.28 | 0.01 | 88 | 1012.5 |
| 20260507013328 | 49 | 276 | 2.6 | 3.5 | 0.00 | 7.28 | 0.01 | 89 | 1012.5 |
| 20260507012827 | 49 | 14 | 0.0 | 2.6 | 0.00 | 7.28 | 0.01 | 87 | 1012.4 |
| 20260507012326 | 49 | 32 | 1.7 | 2.6 | 0.00 | 7.28 | 0.01 | 88 | 1012.5 |
| 20260507011824 | 49 | 255 | 0.0 | 2.6 | 0.00 | 7.28 | 0.01 | 87 | 1012.4 |
| 20260507011323 | 49 | 304 | 1.7 | 2.6 | 0.00 | 7.28 | 0.01 | 87 | 1012.3 |
| 20260507010821 | 49 | 302 | 1.7 | 2.6 | 0.00 | 7.28 | 0.01 | 88 | 1012.4 |
| 20260507010340 | 49 | 74 | 0.0 | 2.6 | 0.00 | 7.28 | 0.01 | 88 | 1012.4 |
| 20260507005817 | 49 | 331 | 0.0 | 2.6 | 0.00 | 7.28 | 0.01 | 87 | 1012.4 |
| 20260507005315 | 49 | 301 | 0.0 | 3.5 | 0.00 | 7.28 | 0.01 | 88 | 1012.5 |
| 20260507004815 | 49 | 290 | 0.9 | 3.5 | 0.00 | 7.28 | 0.01 | 88 | 1012.4 |
| 20260507004315 | 49 | 254 | 1.7 | 4.3 | 0.00 | 7.28 | 0.01 | 87 | 1012.6 |
| 20260507003815 | 49 | 280 | 3.5 | 6.1 | 0.00 | 7.28 | 0.01 | 87 | 1012.6 |
| 20260507003315 | 49 | 262 | 3.5 | 4.3 | 0.00 | 7.28 | 0.01 | 87 | 1012.7 |
| 20260507002831 | 49 | 285 | 2.6 | 7.8 | 0.04 | 7.28 | 0.01 | 86 | 1012.7 |
| 20260507002329 | 49 | 263 | 5.2 | 7.0 | 0.04 | 7.28 | 0.01 | 87 | 1012.7 |
| 20260507001829 | 49 | 270 | 5.2 | 7.0 | 0.04 | 7.28 | 0.01 | 88 | 1012.7 |
| 20260507001330 | 49 | 272 | 3.5 | 4.3 | 0.04 | 7.32 | 0.01 | 88 | 1012.8 |
| 20260507000829 | 49 | 239 | 3.5 | 4.3 | 0.04 | 7.32 | 0.01 | 87 | 1012.8 |
| 20260507000329 | 49 | 262 | 1.7 | 2.6 | 0.04 | 7.32 | 0.01 | 88 | 1012.8 |
| 20260506235829 | 49 | 344 | 0.9 | 2.6 | 0.04 | 7.32 | 0.01 | 87 | 1012.7 |
| 20260506235343 | 49 | 305 | 0.9 | 1.7 | 0.04 | 7.32 | 0.01 | 87 | 1012.8 |
| 20260506234820 | 49 | 305 | 0.0 | 2.6 | 0.04 | 7.32 | 0.01 | 87 | 1012.7 |
| 20260506234318 | 49 | 315 | 1.7 | 2.6 | 0.04 | 7.32 | 0.01 | 87 | 1012.6 |
| 20260506233818 | 49 | 250 | 1.7 | 3.5 | 0.04 | 7.32 | 0.01 | 87 | 1012.7 |
| 20260506233317 | 49 | 252 | 1.7 | 5.2 | 0.04 | 7.32 | 0.01 | 86 | 1012.7 |
| 20260506232816 | 49 | 261 | 1.7 | 3.5 | 0.00 | 7.28 | 0.00 | 86 | 1012.6 |
| 20260506232336 | 49 | 234 | 1.7 | 5.2 | 0.00 | 7.28 | 0.00 | 87 | 1012.7 |
| 20260506231814 | 49 | 282 | 2.6 | 5.2 | 0.00 | 7.28 | 0.00 | 87 | 1012.8 |
| 20260506231332 | 49 | 293 | 1.7 | 2.6 | 0.00 | 7.28 | 0.00 | 87 | 1012.8 |
| 20260506230830 | 49 | 331 | 0.0 | 2.6 | 0.00 | 7.28 | 0.00 | 86 | 1012.7 |
| 20260506230326 | 49 | 313 | 0.9 | 2.6 | 0.00 | 7.28 | 0.00 | 88 | 1012.6 |
| 20260506225844 | 49 | 264 | 1.7 | 3.5 | 0.00 | 7.28 | 0.00 | 87 | 1012.6 |
| 20260506225324 | 49 | 254 | 2.6 | 4.3 | 0.00 | 7.28 | 0.00 | 87 | 1012.7 |
| 20260506224824 | 49 | 277 | 2.6 | 6.1 | 0.00 | 7.28 | 0.00 | 86 | 1012.6 |
| 20260506224322 | 49 | 260 | 2.6 | 7.8 | 0.00 | 7.28 | 0.00 | 87 | 1012.6 |
| 20260506223821 | 48 | 271 | 5.2 | 7.0 | 0.04 | 7.28 | 0.00 | 88 | 1012.7 |
| 20260506223320 | 48 | 275 | 2.6 | 3.5 | 0.04 | 7.28 | 0.00 | 88 | 1012.7 |
| 20260506222816 | 48 | 303 | 1.7 | 3.5 | 0.04 | 7.28 | 0.00 | 88 | 1012.8 |
| 20260506222314 | 49 | 321 | 2.6 | 3.5 | 0.08 | 7.28 | 0.00 | 88 | 1012.7 |
| 20260506221832 | 49 | 269 | 1.7 | 3.5 | 0.12 | 7.28 | 0.00 | 88 | 1012.8 |
| 20260506221313 | 49 | 294 | 2.6 | 3.5 | 0.12 | 7.91 | 1.46 | 88 | 1012.8 |
| 20260506220813 | 49 | 292 | 1.7 | 3.5 | 0.12 | 7.91 | 1.46 | 88 | 1012.8 |
| 20260506220312 | 49 | 229 | 2.6 | 3.5 | 0.12 | 7.91 | 1.46 | 87 | 1012.8 |
| 20260506215832 | 49 | 303 | 1.7 | 3.5 | 0.12 | 7.91 | 1.46 | 85 | 1012.8 |
| 20260506215331 | 49 | 329 | 0.9 | 1.7 | 0.12 | 7.91 | 1.46 | 85 | 1012.9 |
| 20260506214850 | 49 | 339 | 0.9 | 4.3 | 0.12 | 7.91 | 1.46 | 85 | 1012.9 |
| 20260506214329 | 49 | 300 | 2.6 | 3.5 | 0.12 | 7.91 | 1.46 | 87 | 1012.8 |
| 20260506213848 | 49 | 289 | 0.9 | 3.5 | 0.08 | 7.87 | 1.45 | 88 | 1012.9 |
| 20260506213326 | 49 | 279 | 0.0 | 3.5 | 0.08 | 7.87 | 1.45 | 87 | 1012.8 |
| 20260506212825 | 49 | 258 | 2.6 | 4.3 | 0.08 | 7.87 | 1.45 | 88 | 1013.0 |
| 20260506212325 | 50 | 280 | 2.6 | 7.0 | 0.04 | 7.83 | 1.44 | 88 | 1012.8 |
| 20260506211844 | 49 | 290 | 5.2 | 7.0 | 0.00 | 7.80 | 1.43 | 87 | 1012.9 |
| 20260506211321 | 50 | 261 | 5.2 | 7.0 | 0.00 | 7.83 | 1.43 | 88 | 1012.9 |
| 20260506210821 | 50 | 263 | 4.3 | 6.1 | 0.00 | 7.83 | 1.43 | 87 | 1012.8 |
| 20260506210322 | 50 | 282 | 3.5 | 6.1 | 0.00 | 7.83 | 1.43 | 87 | 1012.8 |
| 20260506205820 | 50 | 300 | 3.5 | 6.1 | 0.00 | 7.83 | 1.43 | 86 | 1012.9 |
| 20260506205320 | 50 | 84 | 2.6 | 4.3 | 0.00 | 7.83 | 1.43 | 84 | 1012.8 |
| 20260506204820 | 50 | 266 | 1.7 | 4.3 | 0.00 | 7.83 | 1.43 | 85 | 1012.8 |
| 20260506204320 | 50 | 259 | 2.6 | 7.0 | 0.00 | 7.83 | 1.43 | 84 | 1012.9 |
| 20260506203820 | 50 | 355 | 1.7 | 7.8 | 0.00 | 7.83 | 1.43 | 83 | 1012.9 |
| 20260506203318 | 50 | 5 | 3.5 | 8.7 | 0.00 | 7.83 | 1.43 | 82 | 1012.8 |
| 20260506202819 | 50 | 38 | 2.6 | 10.4 | 0.00 | 7.83 | 1.43 | 84 | 1012.8 |
| 20260506202319 | 50 | 275 | 0.9 | 2.6 | 0.00 | 7.83 | 1.43 | 88 | 1012.8 |
| 20260506201819 | 50 | 229 | 0.9 | 4.3 | 0.00 | 7.83 | 1.43 | 88 | 1012.7 |
| 20260506201319 | 50 | 224 | 3.5 | 5.2 | 0.00 | 7.87 | 1.43 | 88 | 1012.5 |
| 20260506200838 | 51 | 90 | 0.0 | 2.6 | 0.00 | 7.87 | 1.43 | 89 | 1012.6 |
| 20260506200317 | 51 | 90 | 1.7 | 3.5 | 0.00 | 7.87 | 1.43 | 89 | 1012.6 |
| 20260506195816 | 51 | 33 | 1.7 | 3.5 | 0.00 | 7.87 | 1.43 | 89 | 1012.6 |
| 20260506195336 | 51 | 232 | 0.9 | 3.5 | 0.00 | 7.87 | 1.43 | 87 | 1012.5 |
| 20260506194816 | 51 | 80 | 1.7 | 5.2 | 0.00 | 7.87 | 1.43 | 87 | 1012.3 |
| 20260506194316 | 51 | 298 | 2.6 | 5.2 | 0.00 | 7.87 | 1.43 | 86 | 1012.4 |
| 20260506193814 | 51 | 17 | 2.6 | 5.2 | 0.00 | 7.87 | 1.43 | 85 | 1012.2 |
| 20260506193312 | 51 | 53 | 1.7 | 5.2 | 0.00 | 7.87 | 1.43 | 86 | 1012.0 |